Year,Month,Day,Hour,Minute,Value (Times are PST for temperature in C)
2016,07,24,00,00,15.90
2016,07,24,00,01,15.90
2016,07,24,00,02,15.90
2016,07,24,00,03,15.90
2016,07,24,00,04,15.90
2016,07,24,00,05,15.90
2016,07,24,00,06,15.90
2016,07,24,00,07,15.80
2016,07,24,00,08,15.80
2016,07,24,00,09,15.80
2016,07,24,00,10,15.80
2016,07,24,00,11,15.80
2016,07,24,00,12,15.80
2016,07,24,00,13,15.80
2016,07,24,00,14,15.80
2016,07,24,00,15,15.80
2016,07,24,00,16,15.80
2016,07,24,00,17,15.80
2016,07,24,00,18,15.70
2016,07,24,00,19,15.70
2016,07,24,00,20,15.70
2016,07,24,00,21,15.70
2016,07,24,00,22,15.70
2016,07,24,00,23,15.70
2016,07,24,00,24,15.70
2016,07,24,00,25,15.70
2016,07,24,00,26,15.70
2016,07,24,00,27,15.70
2016,07,24,00,28,15.70
2016,07,24,00,29,15.70
2016,07,24,00,30,15.70
2016,07,24,00,31,15.60
2016,07,24,00,32,15.60
2016,07,24,00,33,15.60
2016,07,24,00,34,15.60
2016,07,24,00,35,15.60
2016,07,24,00,36,15.60
2016,07,24,00,37,15.60
2016,07,24,00,38,15.60
2016,07,24,00,39,15.60
2016,07,24,00,40,15.60
2016,07,24,00,41,15.60
2016,07,24,00,42,15.60
2016,07,24,00,43,15.60
2016,07,24,00,44,15.60
2016,07,24,00,45,15.60
2016,07,24,00,46,15.60
2016,07,24,00,47,15.60
2016,07,24,00,48,15.50
2016,07,24,00,49,15.50
2016,07,24,00,50,15.50
2016,07,24,00,51,15.50
2016,07,24,00,52,15.50
2016,07,24,00,53,15.50
2016,07,24,00,54,15.50
2016,07,24,00,55,15.40
2016,07,24,00,56,15.40
2016,07,24,00,57,15.40
2016,07,24,00,58,15.40
2016,07,24,01,00,15.40
2016,07,24,01,01,15.40
2016,07,24,01,04,15.30
2016,07,24,01,06,15.30
2016,07,24,01,07,15.30
2016,07,24,01,08,15.30
2016,07,24,01,09,15.30
2016,07,24,01,10,15.30
2016,07,24,01,11,15.30
2016,07,24,01,12,15.30
2016,07,24,01,13,15.30
2016,07,24,01,14,15.30
2016,07,24,01,15,15.30
2016,07,24,01,16,15.30
2016,07,24,01,17,15.30
2016,07,24,01,18,15.30
2016,07,24,01,19,15.30
2016,07,24,01,20,15.20
2016,07,24,01,21,15.20
2016,07,24,01,22,15.20
2016,07,24,01,23,15.20
2016,07,24,01,24,15.20
2016,07,24,01,25,15.20
2016,07,24,01,26,15.20
2016,07,24,01,27,15.20
2016,07,24,01,28,15.20
2016,07,24,01,29,15.20
2016,07,24,01,30,15.20
2016,07,24,01,31,15.10
2016,07,24,01,32,15.10
2016,07,24,01,33,15.10
2016,07,24,01,34,15.10
2016,07,24,01,35,15.10
2016,07,24,01,36,15.10
2016,07,24,01,37,15.10
2016,07,24,01,38,15.00
2016,07,24,01,39,15.00
2016,07,24,01,40,15.00
2016,07,24,01,41,15.00
2016,07,24,01,42,15.00
2016,07,24,01,43,15.00
2016,07,24,01,44,14.90
2016,07,24,01,45,14.90
2016,07,24,01,46,14.90
2016,07,24,01,47,14.90
2016,07,24,01,48,14.90
2016,07,24,01,49,14.90
2016,07,24,01,50,14.90
2016,07,24,01,51,14.90
2016,07,24,01,52,14.90
2016,07,24,01,53,14.90
2016,07,24,01,54,14.90
2016,07,24,01,55,14.80
2016,07,24,01,56,14.80
2016,07,24,01,57,14.80
2016,07,24,01,58,14.80
2016,07,24,01,59,14.80
2016,07,24,02,00,14.80
2016,07,24,02,01,14.80
2016,07,24,02,02,14.80
2016,07,24,02,03,14.80
2016,07,24,02,04,14.80
2016,07,24,02,05,14.80
2016,07,24,02,06,14.80
2016,07,24,02,07,14.70
2016,07,24,02,08,14.70
2016,07,24,02,09,14.70
2016,07,24,02,10,14.70
2016,07,24,02,11,14.70
2016,07,24,02,12,14.70
2016,07,24,02,13,14.70
2016,07,24,02,14,14.70
2016,07,24,02,16,14.60
2016,07,24,02,17,14.60
2016,07,24,02,18,14.60
2016,07,24,02,19,14.60
2016,07,24,02,20,14.60
2016,07,24,02,21,14.60
2016,07,24,02,22,14.60
2016,07,24,02,23,14.60
2016,07,24,02,24,14.60
2016,07,24,02,25,14.60
2016,07,24,02,26,14.50
2016,07,24,02,27,14.50
2016,07,24,02,28,14.50
2016,07,24,02,29,14.50
2016,07,24,02,30,14.50
2016,07,24,02,31,14.50
2016,07,24,02,32,14.50
2016,07,24,02,33,14.50
2016,07,24,02,34,14.50
2016,07,24,02,35,14.50
2016,07,24,02,36,14.50
2016,07,24,02,37,14.50
2016,07,24,02,38,14.50
2016,07,24,02,39,14.50
2016,07,24,02,40,14.50
2016,07,24,02,41,14.50
2016,07,24,02,42,14.50
2016,07,24,02,43,14.50
2016,07,24,02,44,14.50
2016,07,24,02,45,14.50
2016,07,24,02,46,14.50
2016,07,24,02,47,14.50
2016,07,24,02,48,14.40
2016,07,24,02,49,14.40
2016,07,24,02,50,14.40
2016,07,24,02,51,14.40
2016,07,24,02,52,14.40
2016,07,24,02,53,14.40
2016,07,24,02,54,14.40
2016,07,24,02,55,14.40
2016,07,24,02,56,14.40
2016,07,24,02,57,14.40
2016,07,24,02,58,14.40
2016,07,24,02,59,14.30
2016,07,24,03,00,14.30
2016,07,24,03,01,14.30
2016,07,24,03,02,14.30
2016,07,24,03,03,14.30
2016,07,24,03,04,14.30
2016,07,24,03,05,14.30
2016,07,24,03,06,14.30
2016,07,24,03,07,14.30
2016,07,24,03,08,14.30
2016,07,24,03,09,14.20
2016,07,24,03,10,14.20
2016,07,24,03,11,14.20
2016,07,24,03,12,14.20
2016,07,24,03,13,14.20
2016,07,24,03,14,14.20
2016,07,24,03,15,14.20
2016,07,24,03,16,14.20
2016,07,24,03,17,14.20
2016,07,24,03,18,14.20
2016,07,24,03,19,14.10
2016,07,24,03,20,14.10
2016,07,24,03,21,14.10
2016,07,24,03,22,14.10
2016,07,24,03,23,14.10
2016,07,24,03,24,14.10
2016,07,24,03,25,14.10
2016,07,24,03,26,14.10
2016,07,24,03,27,14.00
2016,07,24,03,28,14.00
2016,07,24,03,29,14.00
2016,07,24,03,30,13.90
2016,07,24,03,31,13.90
2016,07,24,03,32,13.90
2016,07,24,03,33,13.90
2016,07,24,03,34,13.80
2016,07,24,03,35,13.80
2016,07,24,03,36,13.80
2016,07,24,03,37,13.80
2016,07,24,03,38,13.80
2016,07,24,03,39,13.80
2016,07,24,03,40,13.80
2016,07,24,03,41,13.80
2016,07,24,03,42,13.70
2016,07,24,03,43,13.70
2016,07,24,03,44,13.70
2016,07,24,03,45,13.70
2016,07,24,03,46,13.70
2016,07,24,03,47,13.70
2016,07,24,03,48,13.70
2016,07,24,03,49,13.70
2016,07,24,03,50,13.70
2016,07,24,03,51,13.60
2016,07,24,03,52,13.60
2016,07,24,03,53,13.60
2016,07,24,03,54,13.60
2016,07,24,03,55,13.60
2016,07,24,03,56,13.60
2016,07,24,03,57,13.60
2016,07,24,03,58,13.60
2016,07,24,03,59,13.60
2016,07,24,04,00,13.60
2016,07,24,04,01,13.60
2016,07,24,04,02,13.50
2016,07,24,04,03,13.50
2016,07,24,04,04,13.50
2016,07,24,04,05,13.50
2016,07,24,04,06,13.50
2016,07,24,04,07,13.50
2016,07,24,04,08,13.40
2016,07,24,04,09,13.40
2016,07,24,04,10,13.40
2016,07,24,04,11,13.40
2016,07,24,04,12,13.40
2016,07,24,04,13,13.40
2016,07,24,04,14,13.40
2016,07,24,04,15,13.40
2016,07,24,04,16,13.40
2016,07,24,04,17,13.40
2016,07,24,04,18,13.30
2016,07,24,04,19,13.30
2016,07,24,04,20,13.30
2016,07,24,04,21,13.30
2016,07,24,04,22,13.30
2016,07,24,04,23,13.30
2016,07,24,04,24,13.30
2016,07,24,04,25,13.30
2016,07,24,04,26,13.30
2016,07,24,04,27,13.30
2016,07,24,04,28,13.30
2016,07,24,04,29,13.20
2016,07,24,04,30,13.20
2016,07,24,04,31,13.20
2016,07,24,04,32,13.20
2016,07,24,04,33,13.20
2016,07,24,04,34,13.20
2016,07,24,04,35,13.20
2016,07,24,04,36,13.20
2016,07,24,04,37,13.20
2016,07,24,04,38,13.20
2016,07,24,04,39,13.20
2016,07,24,04,40,13.20
2016,07,24,04,41,13.20
2016,07,24,04,42,13.20
2016,07,24,04,43,13.10
2016,07,24,04,44,13.10
2016,07,24,04,45,13.20
2016,07,24,04,46,13.10
2016,07,24,04,47,13.10
2016,07,24,04,48,13.10
2016,07,24,04,49,13.10
2016,07,24,04,50,13.10
2016,07,24,04,51,13.10
2016,07,24,04,52,13.10
2016,07,24,04,53,13.10
2016,07,24,04,54,13.10
2016,07,24,04,55,13.10
2016,07,24,04,56,13.10
2016,07,24,04,57,13.10
2016,07,24,04,58,13.10
2016,07,24,04,59,13.10
2016,07,24,05,00,13.10
2016,07,24,05,01,13.10
2016,07,24,05,02,13.10
2016,07,24,05,03,13.10
2016,07,24,05,04,13.10
2016,07,24,05,05,13.10
2016,07,24,05,06,13.10
2016,07,24,05,07,13.10
2016,07,24,05,08,13.00
2016,07,24,05,09,13.00
2016,07,24,05,10,13.00
2016,07,24,05,11,13.00
2016,07,24,05,12,13.00
2016,07,24,05,13,13.00
2016,07,24,05,14,13.00
2016,07,24,05,15,12.90
2016,07,24,05,16,13.00
2016,07,24,05,17,13.00
2016,07,24,05,18,12.90
2016,07,24,05,19,12.90
2016,07,24,05,20,12.90
2016,07,24,05,21,12.90
2016,07,24,05,22,12.90
2016,07,24,05,23,12.90
2016,07,24,05,24,12.90
2016,07,24,05,25,12.90
2016,07,24,05,26,12.90
2016,07,24,05,27,12.90
2016,07,24,05,28,12.80
2016,07,24,05,29,12.80
2016,07,24,05,30,12.80
2016,07,24,05,31,12.80
2016,07,24,05,32,12.80
2016,07,24,05,33,12.80
2016,07,24,05,34,12.80
2016,07,24,05,35,12.70
2016,07,24,05,36,12.70
2016,07,24,05,37,12.70
2016,07,24,05,38,12.70
2016,07,24,05,39,12.70
2016,07,24,05,40,12.70
2016,07,24,05,41,12.70
2016,07,24,05,42,12.70
2016,07,24,05,43,12.70
2016,07,24,05,44,12.70
2016,07,24,05,45,12.70
2016,07,24,05,46,12.70
2016,07,24,05,47,12.70
2016,07,24,05,48,12.70
2016,07,24,05,49,12.70
2016,07,24,05,50,12.70
2016,07,24,05,51,12.70
2016,07,24,05,52,12.70
2016,07,24,05,53,12.70
2016,07,24,05,54,12.70
2016,07,24,05,55,12.70
2016,07,24,05,56,12.70
2016,07,24,05,57,12.70
2016,07,24,05,58,12.70
2016,07,24,05,59,12.70
2016,07,24,06,00,12.70
2016,07,24,06,01,12.70
2016,07,24,06,02,12.70
2016,07,24,06,03,12.70
2016,07,24,06,04,12.70
2016,07,24,06,05,12.70
2016,07,24,06,06,12.70
2016,07,24,06,07,12.70
2016,07,24,06,08,12.70
2016,07,24,06,09,12.70
2016,07,24,06,10,12.70
2016,07,24,06,11,12.70
2016,07,24,06,12,12.70
2016,07,24,06,13,12.70
2016,07,24,06,14,12.70
2016,07,24,06,15,12.70
2016,07,24,06,16,12.70
2016,07,24,06,17,12.70
2016,07,24,06,18,12.70
2016,07,24,06,19,12.70
2016,07,24,06,20,12.70
2016,07,24,06,22,12.70
2016,07,24,06,23,12.70
2016,07,24,06,24,12.80
2016,07,24,06,25,12.80
2016,07,24,06,26,12.80
2016,07,24,06,27,12.80
2016,07,24,06,28,12.80
2016,07,24,06,29,12.90
2016,07,24,06,30,12.90
2016,07,24,06,31,12.90
2016,07,24,06,32,13.00
2016,07,24,06,33,13.10
2016,07,24,06,34,13.10
2016,07,24,06,35,13.20
2016,07,24,06,36,13.20
2016,07,24,06,37,13.30
2016,07,24,06,38,13.40
2016,07,24,06,39,13.40
2016,07,24,06,40,13.50
2016,07,24,06,41,13.60
2016,07,24,06,42,13.70
2016,07,24,06,43,13.80
2016,07,24,06,44,13.80
2016,07,24,06,45,13.90
2016,07,24,06,46,13.90
2016,07,24,06,47,14.00
2016,07,24,06,48,14.10
2016,07,24,06,49,14.10
2016,07,24,06,50,14.20
2016,07,24,06,51,14.30
2016,07,24,06,52,14.30
2016,07,24,06,53,14.40
2016,07,24,06,54,14.40
2016,07,24,06,55,14.50
2016,07,24,06,56,14.60
2016,07,24,06,57,14.70
2016,07,24,06,58,14.70
2016,07,24,06,59,14.80
2016,07,24,07,00,14.80
2016,07,24,07,01,14.90
2016,07,24,07,02,15.00
2016,07,24,07,03,15.10
2016,07,24,07,04,15.10
2016,07,24,07,05,15.20
2016,07,24,07,06,15.20
2016,07,24,07,07,15.20
2016,07,24,07,08,15.20
2016,07,24,07,09,15.20
2016,07,24,07,10,15.20
2016,07,24,07,11,15.30
2016,07,24,07,12,15.30
2016,07,24,07,13,15.40
2016,07,24,07,14,15.50
2016,07,24,07,15,15.50
2016,07,24,07,16,15.60
2016,07,24,07,17,15.70
2016,07,24,07,18,15.70
2016,07,24,07,19,15.70
2016,07,24,07,20,15.80
2016,07,24,07,21,15.80
2016,07,24,07,22,15.90
2016,07,24,07,23,15.90
2016,07,24,07,24,15.90
2016,07,24,07,25,16.00
2016,07,24,07,26,16.00
2016,07,24,07,27,16.00
2016,07,24,07,28,16.00
2016,07,24,07,29,15.90
2016,07,24,07,30,15.90
2016,07,24,07,31,15.90
2016,07,24,07,32,15.90
2016,07,24,07,33,15.90
2016,07,24,07,34,15.90
2016,07,24,07,35,15.90
2016,07,24,07,36,16.00
2016,07,24,07,37,16.10
2016,07,24,07,38,16.10
2016,07,24,07,39,16.20
2016,07,24,07,40,16.20
2016,07,24,07,41,16.20
2016,07,24,07,42,16.20
2016,07,24,07,43,16.20
2016,07,24,07,44,16.20
2016,07,24,07,45,16.20
2016,07,24,07,46,16.30
2016,07,24,07,47,16.30
2016,07,24,07,48,16.30
2016,07,24,07,49,16.30
2016,07,24,07,50,16.30
2016,07,24,07,51,16.30
2016,07,24,07,52,16.30
2016,07,24,07,53,16.30
2016,07,24,07,54,16.40
2016,07,24,07,55,16.40
2016,07,24,07,56,16.40
2016,07,24,07,57,16.50
2016,07,24,07,58,16.60
2016,07,24,07,59,16.60
2016,07,24,08,00,16.70
2016,07,24,08,02,16.80
2016,07,24,08,03,16.80
2016,07,24,08,04,16.90
2016,07,24,08,05,17.00
2016,07,24,08,06,17.10
2016,07,24,08,07,17.10
2016,07,24,08,08,17.20
2016,07,24,08,09,17.30
2016,07,24,08,10,17.40
2016,07,24,08,11,17.40
2016,07,24,08,12,17.50
2016,07,24,08,13,17.60
2016,07,24,08,14,17.60
2016,07,24,08,15,17.60
2016,07,24,08,16,17.60
2016,07,24,08,17,17.60
2016,07,24,08,18,17.50
2016,07,24,08,19,17.50
2016,07,24,08,20,17.60
2016,07,24,08,21,17.60
2016,07,24,08,22,17.60
2016,07,24,08,23,17.60
2016,07,24,08,24,17.60
2016,07,24,08,25,17.60
2016,07,24,08,26,17.60
2016,07,24,08,27,17.60
2016,07,24,08,28,17.70
2016,07,24,08,29,17.70
2016,07,24,08,30,17.70
2016,07,24,08,31,17.70
2016,07,24,08,32,17.80
2016,07,24,08,33,17.80
2016,07,24,08,34,17.80
2016,07,24,08,35,17.90
2016,07,24,08,36,17.90
2016,07,24,08,37,17.90
2016,07,24,08,38,17.90
2016,07,24,08,39,17.90
2016,07,24,08,40,17.80
2016,07,24,08,41,17.80
2016,07,24,08,42,17.80
2016,07,24,08,43,17.80
2016,07,24,08,44,17.80
2016,07,24,08,45,17.70
2016,07,24,08,46,17.80
2016,07,24,08,47,17.80
2016,07,24,08,48,17.80
2016,07,24,08,49,17.80
2016,07,24,08,50,17.80
2016,07,24,08,51,17.80
2016,07,24,08,52,17.80
2016,07,24,08,53,17.80
2016,07,24,08,54,17.80
2016,07,24,08,55,17.80
2016,07,24,08,56,17.80
2016,07,24,08,57,17.80
2016,07,24,08,58,17.90
2016,07,24,08,59,17.90
2016,07,24,09,00,18.00
2016,07,24,09,01,18.10
2016,07,24,09,02,18.10
2016,07,24,09,03,18.20
2016,07,24,09,04,18.30
2016,07,24,09,05,18.30
2016,07,24,09,06,18.40
2016,07,24,09,07,18.40
2016,07,24,09,08,18.40
2016,07,24,09,09,18.50
2016,07,24,09,11,18.60
2016,07,24,09,12,18.60
2016,07,24,09,13,18.70
2016,07,24,09,14,18.70
2016,07,24,09,15,18.80
2016,07,24,09,16,18.80
2016,07,24,09,17,18.80
2016,07,24,09,18,18.90
2016,07,24,09,19,18.90
2016,07,24,09,20,19.00
2016,07,24,09,21,19.10
2016,07,24,09,22,19.10
2016,07,24,09,23,19.10
2016,07,24,09,24,19.00
2016,07,24,09,25,19.00
2016,07,24,09,26,19.00
2016,07,24,09,27,19.10
2016,07,24,09,28,19.10
2016,07,24,09,29,19.20
2016,07,24,09,30,19.30
2016,07,24,09,31,19.30
2016,07,24,09,32,19.40
2016,07,24,09,33,19.40
2016,07,24,09,34,19.50
2016,07,24,09,35,19.60
2016,07,24,09,36,19.60
2016,07,24,09,37,19.70
2016,07,24,09,38,19.70
2016,07,24,09,39,19.70
2016,07,24,09,40,19.80
2016,07,24,09,41,19.80
2016,07,24,09,42,19.90
2016,07,24,09,43,19.90
2016,07,24,09,44,19.90
2016,07,24,09,45,19.90
2016,07,24,09,46,19.90
2016,07,24,09,47,19.90
2016,07,24,09,48,20.00
2016,07,24,09,49,20.10
2016,07,24,09,50,20.10
2016,07,24,09,51,20.00
2016,07,24,09,52,20.00
2016,07,24,09,53,19.90
2016,07,24,09,54,19.90
2016,07,24,09,55,19.90
2016,07,24,09,56,19.90
2016,07,24,09,57,19.90
2016,07,24,09,58,20.00
2016,07,24,09,59,20.10
2016,07,24,10,00,20.10
2016,07,24,10,01,20.20
2016,07,24,10,02,20.20
2016,07,24,10,03,20.20
2016,07,24,10,04,20.30
2016,07,24,10,05,20.30
2016,07,24,10,06,20.30
2016,07,24,10,07,20.30
2016,07,24,10,08,20.40
2016,07,24,10,09,20.40
2016,07,24,10,10,20.50
2016,07,24,10,11,20.60
2016,07,24,10,12,20.60
2016,07,24,10,13,20.70
2016,07,24,10,14,20.70
2016,07,24,10,15,20.80
2016,07,24,10,16,20.80
2016,07,24,10,17,20.80
2016,07,24,10,18,20.90
2016,07,24,10,19,20.90
2016,07,24,10,20,20.90
2016,07,24,10,21,21.00
2016,07,24,10,22,21.00
2016,07,24,10,23,21.00
2016,07,24,10,24,21.10
2016,07,24,10,25,21.10
2016,07,24,10,26,21.10
2016,07,24,10,27,21.10
2016,07,24,10,28,21.10
2016,07,24,10,29,21.20
2016,07,24,10,30,21.20
2016,07,24,10,31,21.20
2016,07,24,10,32,21.20
2016,07,24,10,33,21.30
2016,07,24,10,34,21.30
2016,07,24,10,35,21.30
2016,07,24,10,36,21.30
2016,07,24,10,37,21.30
2016,07,24,10,38,21.30
2016,07,24,10,39,21.30
2016,07,24,10,40,21.30
2016,07,24,10,41,21.30
2016,07,24,10,42,21.40
2016,07,24,10,43,21.40
2016,07,24,10,44,21.60
2016,07,24,10,45,21.60
2016,07,24,10,46,21.70
2016,07,24,10,47,21.70
2016,07,24,10,48,21.70
2016,07,24,10,49,21.80
2016,07,24,10,50,21.80
2016,07,24,10,51,21.90
2016,07,24,10,52,21.90
2016,07,24,10,53,22.00
2016,07,24,10,54,22.10
2016,07,24,10,55,22.20
2016,07,24,10,56,22.20
2016,07,24,10,57,22.20
2016,07,24,10,58,22.30
2016,07,24,10,59,22.40
2016,07,24,11,00,22.40
2016,07,24,11,01,22.50
2016,07,24,11,02,22.60
2016,07,24,11,03,22.60
2016,07,24,11,04,22.70
2016,07,24,11,05,22.80
2016,07,24,11,06,22.80
2016,07,24,11,07,22.90
2016,07,24,11,08,23.10
2016,07,24,11,09,23.10
2016,07,24,11,10,23.20
2016,07,24,11,11,23.20
2016,07,24,11,12,23.20
2016,07,24,11,13,23.20
2016,07,24,11,14,23.20
2016,07,24,11,15,23.30
2016,07,24,11,16,23.30
2016,07,24,11,17,23.30
2016,07,24,11,18,23.40
2016,07,24,11,19,23.40
2016,07,24,11,20,23.60
2016,07,24,11,21,23.60
2016,07,24,11,22,23.70
2016,07,24,11,23,23.70
2016,07,24,11,24,23.70
2016,07,24,11,25,23.70
2016,07,24,11,26,23.70
2016,07,24,11,27,23.70
2016,07,24,11,28,23.60
2016,07,24,11,29,23.70
2016,07,24,11,30,23.70
2016,07,24,11,31,23.70
2016,07,24,11,32,23.70
2016,07,24,11,33,23.70
2016,07,24,11,34,23.70
2016,07,24,11,35,23.80
2016,07,24,11,36,23.80
2016,07,24,11,37,23.80
2016,07,24,11,38,23.90
2016,07,24,11,39,23.90
2016,07,24,11,40,23.90
2016,07,24,11,41,23.90
2016,07,24,11,42,23.90
2016,07,24,11,43,24.00
2016,07,24,11,44,24.10
2016,07,24,11,45,24.10
2016,07,24,11,46,24.20
2016,07,24,11,47,24.10
2016,07,24,11,48,24.10
2016,07,24,11,49,24.20
2016,07,24,11,50,24.20
2016,07,24,11,51,24.30
2016,07,24,11,52,24.40
2016,07,24,11,53,24.40
2016,07,24,11,54,24.50
2016,07,24,11,55,24.60
2016,07,24,11,56,24.60
2016,07,24,11,57,24.70
2016,07,24,11,58,24.70
2016,07,24,11,59,24.80
2016,07,24,12,00,24.80
2016,07,24,12,01,24.90
2016,07,24,12,02,24.90
2016,07,24,12,03,25.00
2016,07,24,12,04,25.10
2016,07,24,12,05,25.20
2016,07,24,12,06,25.20
2016,07,24,12,07,25.20
2016,07,24,12,08,25.30
2016,07,24,12,09,25.30
2016,07,24,12,10,25.30
2016,07,24,12,11,25.30
2016,07,24,12,12,25.40
2016,07,24,12,13,25.50
2016,07,24,12,14,25.60
2016,07,24,12,15,25.60
2016,07,24,12,16,25.60
2016,07,24,12,17,25.70
2016,07,24,12,18,25.70
2016,07,24,12,19,25.80
2016,07,24,12,20,25.80
2016,07,24,12,21,25.80
2016,07,24,12,22,25.80
2016,07,24,12,23,25.80
2016,07,24,12,24,25.80
2016,07,24,12,25,25.80
2016,07,24,12,26,26.00
2016,07,24,12,27,26.10
2016,07,24,12,28,26.20
2016,07,24,12,29,26.30
2016,07,24,12,30,26.50
2016,07,24,12,31,26.70
2016,07,24,12,32,26.80
2016,07,24,12,33,26.80
2016,07,24,12,34,26.80
2016,07,24,12,35,26.80
2016,07,24,12,36,26.80
2016,07,24,12,37,26.80
2016,07,24,12,38,26.80
2016,07,24,12,39,26.80
2016,07,24,12,40,26.70
2016,07,24,12,41,26.70
2016,07,24,12,42,26.70
2016,07,24,12,43,26.80
2016,07,24,12,44,26.80
2016,07,24,12,45,26.80
2016,07,24,12,46,26.80
2016,07,24,12,47,26.80
2016,07,24,12,48,26.80
2016,07,24,12,49,26.80
2016,07,24,12,50,26.70
2016,07,24,12,51,26.70
2016,07,24,12,52,26.70
2016,07,24,12,53,26.70
2016,07,24,12,54,26.70
2016,07,24,12,55,26.80
2016,07,24,12,56,26.80
2016,07,24,12,57,26.80
2016,07,24,12,58,26.80
2016,07,24,12,59,26.80
2016,07,24,13,00,26.80
2016,07,24,13,01,26.90
2016,07,24,13,02,26.90
2016,07,24,13,03,27.10
2016,07,24,13,04,27.10
2016,07,24,13,05,27.20
2016,07,24,13,06,27.30
2016,07,24,13,07,27.40
2016,07,24,13,08,27.60
2016,07,24,13,09,27.70
2016,07,24,13,10,27.80
2016,07,24,13,11,27.80
2016,07,24,13,12,27.80
2016,07,24,13,13,27.90
2016,07,24,13,14,27.90
2016,07,24,13,15,27.90
2016,07,24,13,16,27.90
2016,07,24,13,17,27.90
2016,07,24,13,18,27.90
2016,07,24,13,19,27.90
2016,07,24,13,20,28.10
2016,07,24,13,21,28.10
2016,07,24,13,22,28.20
2016,07,24,13,23,28.30
2016,07,24,13,24,28.40
2016,07,24,13,25,28.50
2016,07,24,13,26,28.60
2016,07,24,13,27,28.70
2016,07,24,13,28,28.80
2016,07,24,13,29,28.90
2016,07,24,13,30,29.00
2016,07,24,13,31,29.00
2016,07,24,13,32,29.00
2016,07,24,13,33,28.90
2016,07,24,13,34,28.90
2016,07,24,13,35,28.80
2016,07,24,13,36,28.70
2016,07,24,13,37,28.70
2016,07,24,13,38,28.70
2016,07,24,13,39,28.70
2016,07,24,13,40,28.80
2016,07,24,13,41,28.80
2016,07,24,13,42,28.80
2016,07,24,13,43,28.80
2016,07,24,13,44,28.90
2016,07,24,13,45,28.90
2016,07,24,13,46,28.90
2016,07,24,13,47,28.90
2016,07,24,13,48,28.90
2016,07,24,13,49,29.00
2016,07,24,13,50,29.00
2016,07,24,13,51,29.00
2016,07,24,13,52,29.00
2016,07,24,13,53,29.10
2016,07,24,13,54,29.10
2016,07,24,13,55,29.10
2016,07,24,13,56,29.10
2016,07,24,13,57,29.10
2016,07,24,13,58,29.10
2016,07,24,13,59,29.10
2016,07,24,14,00,29.00
2016,07,24,14,01,28.90
2016,07,24,14,02,28.90
2016,07,24,14,03,28.90
2016,07,24,14,04,28.90
2016,07,24,14,05,28.80
2016,07,24,14,06,28.70
2016,07,24,14,07,28.70
2016,07,24,14,08,28.60
2016,07,24,14,09,28.60
2016,07,24,14,10,28.50
2016,07,24,14,11,28.50
2016,07,24,14,12,28.50
2016,07,24,14,13,28.50
2016,07,24,14,14,28.50
2016,07,24,14,15,28.50
2016,07,24,14,16,28.50
2016,07,24,14,17,28.50
2016,07,24,14,18,28.50
2016,07,24,14,19,28.50
2016,07,24,14,20,28.50
2016,07,24,14,21,28.60
2016,07,24,14,22,28.60
2016,07,24,14,23,28.70
2016,07,24,14,24,28.80
2016,07,24,14,25,28.90
2016,07,24,14,26,28.90
2016,07,24,14,27,29.10
2016,07,24,14,28,29.30
2016,07,24,14,29,29.40
2016,07,24,14,30,29.50
2016,07,24,14,31,29.60
2016,07,24,14,32,29.60
2016,07,24,14,33,29.60
2016,07,24,14,34,29.70
2016,07,24,14,35,29.70
2016,07,24,14,36,29.80
2016,07,24,14,37,29.80
2016,07,24,14,38,29.80
2016,07,24,14,39,29.80
2016,07,24,14,40,29.80
2016,07,24,14,41,29.90
2016,07,24,14,42,29.90
2016,07,24,14,43,29.90
2016,07,24,14,44,29.90
2016,07,24,14,45,29.80
2016,07,24,14,46,29.80
2016,07,24,14,47,29.90
2016,07,24,14,48,29.90
2016,07,24,14,49,29.90
2016,07,24,14,50,29.90
2016,07,24,14,51,29.90
2016,07,24,14,52,29.90
2016,07,24,14,53,29.90
2016,07,24,14,54,29.90
2016,07,24,14,55,29.90
2016,07,24,14,56,29.80
2016,07,24,14,57,29.80
2016,07,24,14,58,29.70
2016,07,24,14,59,29.60
2016,07,24,15,00,29.50
2016,07,24,15,01,29.40
2016,07,24,15,02,29.30
2016,07,24,15,03,29.30
2016,07,24,15,04,29.30
2016,07,24,15,05,29.30
2016,07,24,15,06,29.30
2016,07,24,15,07,29.40
2016,07,24,15,08,29.40
2016,07,24,15,09,29.40
2016,07,24,15,10,29.50
2016,07,24,15,11,29.60
2016,07,24,15,12,29.60
2016,07,24,15,13,29.60
2016,07,24,15,14,29.60
2016,07,24,15,15,29.70
2016,07,24,15,16,29.70
2016,07,24,15,17,29.70
2016,07,24,15,18,29.70
2016,07,24,15,19,29.70
2016,07,24,15,20,29.70
2016,07,24,15,21,29.70
2016,07,24,15,22,29.70
2016,07,24,15,23,29.70
2016,07,24,15,24,29.70
2016,07,24,15,25,29.70
2016,07,24,15,26,29.70
2016,07,24,15,27,29.60
2016,07,24,15,28,29.60
2016,07,24,15,29,29.60
2016,07,24,15,30,29.60
2016,07,24,15,31,29.60
2016,07,24,15,32,29.60
2016,07,24,15,33,29.60
2016,07,24,15,34,29.60
2016,07,24,15,35,29.50
2016,07,24,15,36,29.40
2016,07,24,15,37,29.40
2016,07,24,15,38,29.40
2016,07,24,15,39,29.40
2016,07,24,15,40,29.40
2016,07,24,15,41,29.40
2016,07,24,15,42,29.40
2016,07,24,15,43,29.40
2016,07,24,15,44,29.50
2016,07,24,15,45,29.60
2016,07,24,15,46,29.60
2016,07,24,15,47,29.60
2016,07,24,15,48,29.60
2016,07,24,15,49,29.60
2016,07,24,15,50,29.70
2016,07,24,15,51,29.70
2016,07,24,15,52,29.70
2016,07,24,15,53,29.70
2016,07,24,15,54,29.70
2016,07,24,15,55,29.70
2016,07,24,15,56,29.70
2016,07,24,15,57,29.60
2016,07,24,15,58,29.60
2016,07,24,15,59,29.60
2016,07,24,16,00,29.50
2016,07,24,16,01,29.50
2016,07,24,16,02,29.50
2016,07,24,16,03,29.50
2016,07,24,16,04,29.60
2016,07,24,16,05,29.60
2016,07,24,16,06,29.70
2016,07,24,16,07,29.80
2016,07,24,16,08,29.80
2016,07,24,16,09,29.80
2016,07,24,16,10,29.80
2016,07,24,16,11,29.80
2016,07,24,16,12,29.70
2016,07,24,16,13,29.70
2016,07,24,16,14,29.60
2016,07,24,16,15,29.40
2016,07,24,16,16,29.40
2016,07,24,16,17,29.30
2016,07,24,16,18,29.20
2016,07,24,16,19,29.20
2016,07,24,16,20,29.20
2016,07,24,16,21,29.10
2016,07,24,16,22,29.10
2016,07,24,16,23,29.10
2016,07,24,16,24,29.20
2016,07,24,16,25,29.20
2016,07,24,16,26,29.20
2016,07,24,16,27,29.20
2016,07,24,16,28,29.20
2016,07,24,16,29,29.30
2016,07,24,16,30,29.30
2016,07,24,16,31,29.30
2016,07,24,16,32,29.20
2016,07,24,16,33,29.30
2016,07,24,16,34,29.30
2016,07,24,16,35,29.30
2016,07,24,16,36,29.30
2016,07,24,16,37,29.30
2016,07,24,16,38,29.20
2016,07,24,16,39,29.20
2016,07,24,16,40,29.20
2016,07,24,16,42,29.20
2016,07,24,16,43,29.20
2016,07,24,16,44,29.20
2016,07,24,16,45,29.10
2016,07,24,16,46,29.10
2016,07,24,16,47,29.10
2016,07,24,16,48,29.10
2016,07,24,16,49,29.00
2016,07,24,16,50,29.00
2016,07,24,16,52,28.90
2016,07,24,16,53,28.90
2016,07,24,16,54,28.90
2016,07,24,16,55,28.90
2016,07,24,16,56,28.90
2016,07,24,16,57,28.90
2016,07,24,16,58,28.90
2016,07,24,16,59,29.00
2016,07,24,17,00,29.00
2016,07,24,17,01,29.10
2016,07,24,17,02,29.10
2016,07,24,17,03,29.10
2016,07,24,17,04,29.10
2016,07,24,17,05,29.10
2016,07,24,17,06,29.10
2016,07,24,17,07,29.10
2016,07,24,17,08,29.10
2016,07,24,17,09,29.10
2016,07,24,17,10,29.00
2016,07,24,17,11,29.00
2016,07,24,17,12,29.00
2016,07,24,17,13,28.90
2016,07,24,17,14,28.90
2016,07,24,17,15,28.90
2016,07,24,17,16,28.90
2016,07,24,17,17,29.00
2016,07,24,17,18,29.00
2016,07,24,17,20,29.10
2016,07,24,17,21,29.10
2016,07,24,17,22,29.10
2016,07,24,17,23,29.20
2016,07,24,17,24,29.20
2016,07,24,17,25,29.20
2016,07,24,17,26,29.20
2016,07,24,17,27,29.20
2016,07,24,17,29,29.20
2016,07,24,17,31,29.10
2016,07,24,17,32,29.10